Torna al catalogo

STARLINK-32470

AttivoComunicazioniVLEO
NORAD 62115·PAYLOAD·🇺🇸 United States

Lanciato Nov 27, 2024 da Cape Canaveral Space Force Station

Loading…

Prossimi Passaggi (prossime 24 ore)

TLE

AggiornatoSource: CelesTrak SupGP

Epoca: Sep 14, 2026, 22:40 UTC

1 62115C 24222B   26257.94493056 -.00216910  00000+0 -78520-2 0  2570
2 62115  43.0005 147.2012 0001278 271.2438 143.2287 15.27705622    16

Traccia STARLINK-32470 in tempo reale con AllMySat

Download on the App Store